owner,sensor,date,latitude,longitude,vertical_datum,wind_speed,wind_to_direction,wind_speed_of_gust,qcFlag 
LOOP,urn:ioos:station:wmo:lopl1:1,2014-07-01T00:03:00Z,28.8850,-90.0250,10.0,3.3,228.0,4.4,'11111222,11111222,11111222' 
LOOP,urn:ioos:station:wmo:lopl1:1,2014-07-01T00:18:00Z,28.8850,-90.0250,10.0,3.1,259.0,4.4,'11111222,11111222,11111222' 
LOOP,urn:ioos:station:wmo:lopl1:1,2014-07-01T00:33:00Z,28.8850,-90.0250,10.0,4.4,259.0,5.9,'11111222,11111222,11111222' 
LOOP,urn:ioos:station:wmo:lopl1:1,2014-07-01T00:48:00Z,28.8850,-90.0250,10.0,3.6,244.0,4.9,'11111222,11111222,11111222' 
LOOP,urn:ioos:station:wmo:lopl1:1,2014-07-01T01:03:00Z,28.8850,-90.0250,10.0,3.9,261.0,5.6,'11111222,11111222,11111222' 
LOOP,urn:ioos:station:wmo:lopl1:1,2014-07-01T01:18:00Z,28.8850,-90.0250,10.0,4.5,249.0,5.8,'11111222,11111222,11111222' 
LOOP,urn:ioos:station:wmo:lopl1:1,2014-07-01T01:33:00Z,28.8850,-90.0250,10.0,3.6,242.0,4.6,'11111222,11111222,11111222' 
LOOP,urn:ioos:station:wmo:lopl1:1,2014-07-01T01:48:00Z,28.8850,-90.0250,10.0,3.1,256.0,4.6,'11111222,11111222,11111222' 
LOOP,urn:ioos:station:wmo:lopl1:1,2014-07-01T02:03:00Z,28.8850,-90.0250,10.0,3.6,232.0,4.7,'11111222,11111222,11111222' 
LOOP,urn:ioos:station:wmo:lopl1:1,2014-07-01T02:18:00Z,28.8850,-90.0250,10.0,3.8,257.0,5.6,'11111222,11111222,11111222' 
LOOP,urn:ioos:station:wmo:lopl1:1,2014-07-01T02:33:00Z,28.8850,-90.0250,10.0,3.8,255.0,5.4,'11111222,11111222,11111222' 
LOOP,urn:ioos:station:wmo:lopl1:1,2014-07-01T02:48:00Z,28.8850,-90.0250,10.0,3.1,247.0,5.0,'11111222,11111222,11111222' 
LOOP,urn:ioos:station:wmo:lopl1:1,2014-07-01T03:03:00Z,28.8850,-90.0250,10.0,2.9,244.0,3.8,'11111222,11111222,11111222' 
LOOP,urn:ioos:station:wmo:lopl1:1,2014-07-01T03:18:00Z,28.8850,-90.0250,10.0,2.7,244.0,3.5,'11111222,11111222,11111222' 
LOOP,urn:ioos:station:wmo:lopl1:1,2014-07-01T03:33:00Z,28.8850,-90.0250,10.0,2.4,243.0,3.5,'11111222,11111222,11111222' 
LOOP,urn:ioos:station:wmo:lopl1:1,2014-07-01T03:48:00Z,28.8850,-90.0250,10.0,2.1,252.0,3.1,'11111222,11111222,11111222' 
LOOP,urn:ioos:station:wmo:lopl1:1,2014-07-01T04:03:00Z,28.8850,-90.0250,10.0,2.6,246.0,3.8,'11111222,11111222,11111222' 
LOOP,urn:ioos:station:wmo:lopl1:1,2014-07-01T04:18:00Z,28.8850,-90.0250,10.0,2.1,254.0,3.0,'11111222,11111222,11111222' 
LOOP,urn:ioos:station:wmo:lopl1:1,2014-07-01T04:33:00Z,28.8850,-90.0250,10.0,3.5,210.0,4.0,'11111222,11111222,11111222' 
LOOP,urn:ioos:station:wmo:lopl1:1,2014-07-01T04:48:00Z,28.8850,-90.0250,10.0,3.1,223.0,4.5,'11111222,11111222,11111222' 
LOOP,urn:ioos:station:wmo:lopl1:1,2014-07-01T05:03:00Z,28.8850,-90.0250,10.0,3.4,234.0,4.2,'11111222,11111222,11111222' 
LOOP,urn:ioos:station:wmo:lopl1:1,2014-07-01T05:18:00Z,28.8850,-90.0250,10.0,3.4,223.0,4.2,'11111222,11111222,11111222' 
LOOP,urn:ioos:station:wmo:lopl1:1,2014-07-01T05:33:00Z,28.8850,-90.0250,10.0,3.5,211.0,4.2,'11111222,11111222,11111222' 
LOOP,urn:ioos:station:wmo:lopl1:1,2014-07-01T05:48:00Z,28.8850,-90.0250,10.0,3.8,213.0,4.7,'11111222,11111222,11111222' 
LOOP,urn:ioos:station:wmo:lopl1:1,2014-07-01T06:03:00Z,28.8850,-90.0250,10.0,3.7,226.0,4.4,'11111222,11111222,11111222' 
LOOP,urn:ioos:station:wmo:lopl1:1,2014-07-01T06:18:00Z,28.8850,-90.0250,10.0,4.1,215.0,5.3,'11111222,11111222,11111222' 
LOOP,urn:ioos:station:wmo:lopl1:1,2014-07-01T06:33:00Z,28.8850,-90.0250,10.0,4.4,215.0,5.3,'11111222,11111222,11111222' 
LOOP,urn:ioos:station:wmo:lopl1:1,2014-07-01T06:48:00Z,28.8850,-90.0250,10.0,4.4,229.0,5.5,'11111222,11111222,11111222' 
LOOP,urn:ioos:station:wmo:lopl1:1,2014-07-01T07:03:00Z,28.8850,-90.0250,10.0,4.1,230.0,4.9,'11111222,11111222,11111222' 
LOOP,urn:ioos:station:wmo:lopl1:1,2014-07-01T07:18:00Z,28.8850,-90.0250,10.0,4.4,232.0,5.6,'11111222,11111222,11111222' 
LOOP,urn:ioos:station:wmo:lopl1:1,2014-07-01T07:33:00Z,28.8850,-90.0250,10.0,4.4,226.0,5.5,'11111222,11111222,11111222' 
LOOP,urn:ioos:station:wmo:lopl1:1,2014-07-01T07:48:00Z,28.8850,-90.0250,10.0,4.4,237.0,5.9,'11111222,11111222,11111222' 
LOOP,urn:ioos:station:wmo:lopl1:1,2014-07-01T08:03:00Z,28.8850,-90.0250,10.0,4.7,251.0,6.5,'11111222,11111222,11111222' 
LOOP,urn:ioos:station:wmo:lopl1:1,2014-07-01T08:18:00Z,28.8850,-90.0250,10.0,4.8,241.0,6.1,'11111222,11111222,11111222' 
LOOP,urn:ioos:station:wmo:lopl1:1,2014-07-01T08:33:00Z,28.8850,-90.0250,10.0,4.8,247.0,6.1,'11111222,11111222,11111222' 
LOOP,urn:ioos:station:wmo:lopl1:1,2014-07-01T08:48:00Z,28.8850,-90.0250,10.0,4.9,236.0,6.5,'11111222,11111222,11111222' 
LOOP,urn:ioos:station:wmo:lopl1:1,2014-07-01T09:03:00Z,28.8850,-90.0250,10.0,5.1,235.0,6.6,'11111222,11111222,11111222' 
LOOP,urn:ioos:station:wmo:lopl1:1,2014-07-01T09:18:00Z,28.8850,-90.0250,10.0,4.9,239.0,6.6,'11111222,11111222,11111222' 
LOOP,urn:ioos:station:wmo:lopl1:1,2014-07-01T09:33:00Z,28.8850,-90.0250,10.0,5.6,241.0,6.8,'11111222,11111222,11111222' 
LOOP,urn:ioos:station:wmo:lopl1:1,2014-07-01T09:48:00Z,28.8850,-90.0250,10.0,5.6,241.0,7.0,'11111222,11111222,11111222' 
LOOP,urn:ioos:station:wmo:lopl1:1,2014-07-01T10:03:00Z,28.8850,-90.0250,10.0,5.4,233.0,7.1,'11111222,11111222,11111222' 
LOOP,urn:ioos:station:wmo:lopl1:1,2014-07-01T10:23:00Z,28.8850,-90.0250,10.0,5.4,243.0,7.1,'11111222,11111222,11111222' 
LOOP,urn:ioos:station:wmo:lopl1:1,2014-07-01T10:38:00Z,28.8850,-90.0250,10.0,4.8,238.0,6.4,'11111222,11111222,11111222' 
LOOP,urn:ioos:station:wmo:lopl1:1,2014-07-01T10:53:00Z,28.8850,-90.0250,10.0,5.0,230.0,7.0,'11111222,11111222,11111222' 
LOOP,urn:ioos:station:wmo:lopl1:1,2014-07-01T11:08:00Z,28.8850,-90.0250,10.0,5.8,255.0,7.2,'11111222,11111222,11111222' 
LOOP,urn:ioos:station:wmo:lopl1:1,2014-07-01T11:23:00Z,28.8850,-90.0250,10.0,5.8,253.0,7.1,'11111222,11111222,11111222' 
LOOP,urn:ioos:station:wmo:lopl1:1,2014-07-01T11:38:00Z,28.8850,-90.0250,10.0,6.3,260.0,7.9,'11111222,11111222,11111222' 
LOOP,urn:ioos:station:wmo:lopl1:1,2014-07-01T11:53:00Z,28.8850,-90.0250,10.0,6.0,263.0,7.4,'11111222,11111222,11111222' 
LOOP,urn:ioos:station:wmo:lopl1:1,2014-07-01T12:08:00Z,28.8850,-90.0250,10.0,5.5,254.0,6.5,'11111222,11111222,11111222' 
LOOP,urn:ioos:station:wmo:lopl1:1,2014-07-01T12:23:00Z,28.8850,-90.0250,10.0,5.1,265.0,6.1,'11111222,11111222,11111222' 
LOOP,urn:ioos:station:wmo:lopl1:1,2014-07-01T12:38:00Z,28.8850,-90.0250,10.0,5.3,276.0,6.2,'11111222,11111222,11111222' 
LOOP,urn:ioos:station:wmo:lopl1:1,2014-07-01T12:53:00Z,28.8850,-90.0250,10.0,4.8,281.0,6.1,'11111222,11111222,11111222' 
LOOP,urn:ioos:station:wmo:lopl1:1,2014-07-01T13:38:00Z,28.8850,-90.0250,10.0,4.3,319.0,5.8,'11111222,11111222,11111222' 
LOOP,urn:ioos:station:wmo:lopl1:1,2014-07-01T13:53:00Z,28.8850,-90.0250,10.0,4.3,312.0,5.2,'11111222,11111222,11111222' 
LOOP,urn:ioos:station:wmo:lopl1:1,2014-07-01T14:08:00Z,28.8850,-90.0250,10.0,3.8,311.0,4.7,'11111222,11111222,11111222' 
LOOP,urn:ioos:station:wmo:lopl1:1,2014-07-01T14:23:00Z,28.8850,-90.0250,10.0,2.8,331.0,4.4,'11111222,11111222,11111222' 
LOOP,urn:ioos:station:wmo:lopl1:1,2014-07-01T14:38:00Z,28.8850,-90.0250,10.0,5.0,308.0,5.8,'11111222,11111222,11111222' 
LOOP,urn:ioos:station:wmo:lopl1:1,2014-07-01T14:58:00Z,28.8850,-90.0250,10.0,3.1,329.0,5.0,'11111222,11111222,11111222' 
LOOP,urn:ioos:station:wmo:lopl1:1,2014-07-01T15:13:00Z,28.8850,-90.0250,10.0,2.8,313.0,4.7,'11111222,11111222,11111222' 
LOOP,urn:ioos:station:wmo:lopl1:1,2014-07-01T15:28:00Z,28.8850,-90.0250,10.0,2.7,325.0,4.4,'11111222,11111222,11111222' 
LOOP,urn:ioos:station:wmo:lopl1:1,2014-07-01T15:43:00Z,28.8850,-90.0250,10.0,3.0,315.0,4.4,'11111222,11111222,11111222' 
LOOP,urn:ioos:station:wmo:lopl1:1,2014-07-01T15:58:00Z,28.8850,-90.0250,10.0,2.7,306.0,4.4,'11111222,11111222,11111222' 
LOOP,urn:ioos:station:wmo:lopl1:1,2014-07-01T16:13:00Z,28.8850,-90.0250,10.0,2.8,313.0,4.4,'11111222,11111222,11111222' 
LOOP,urn:ioos:station:wmo:lopl1:1,2014-07-01T16:28:00Z,28.8850,-90.0250,10.0,3.3,325.0,4.9,'11111222,11111222,11111222' 
LOOP,urn:ioos:station:wmo:lopl1:1,2014-07-01T16:43:00Z,28.8850,-90.0250,10.0,3.1,310.0,4.0,'11111222,11111222,11111222' 
LOOP,urn:ioos:station:wmo:lopl1:1,2014-07-01T16:58:00Z,28.8850,-90.0250,10.0,2.5,309.0,3.5,'11111222,11111222,11111222' 
LOOP,urn:ioos:station:wmo:lopl1:1,2014-07-01T17:13:00Z,28.8850,-90.0250,10.0,2.6,300.0,3.6,'11111222,11111222,11111222' 
LOOP,urn:ioos:station:wmo:lopl1:1,2014-07-01T17:28:00Z,28.8850,-90.0250,10.0,2.6,286.0,3.5,'11111222,11111222,11111222' 
LOOP,urn:ioos:station:wmo:lopl1:1,2014-07-01T17:48:00Z,28.8850,-90.0250,10.0,2.1,289.0,3.2,'11111222,11111222,11111222' 
LOOP,urn:ioos:station:wmo:lopl1:1,2014-07-01T18:03:00Z,28.8850,-90.0250,10.0,1.6,291.0,2.2,'11111222,11111222,11111222' 
LOOP,urn:ioos:station:wmo:lopl1:1,2014-07-01T18:23:00Z,28.8850,-90.0250,10.0,2.1,294.0,3.4,'11111222,11111222,11111222' 
LOOP,urn:ioos:station:wmo:lopl1:1,2014-07-01T18:38:00Z,28.8850,-90.0250,10.0,2.1,303.0,3.5,'11111222,11111222,11111222' 
LOOP,urn:ioos:station:wmo:lopl1:1,2014-07-01T18:53:00Z,28.8850,-90.0250,10.0,2.3,299.0,3.2,'11111222,11111222,11111222' 
LOOP,urn:ioos:station:wmo:lopl1:1,2014-07-01T19:08:00Z,28.8850,-90.0250,10.0,2.0,278.0,2.6,'11111222,11111222,11111222' 
LOOP,urn:ioos:station:wmo:lopl1:1,2014-07-01T19:23:00Z,28.8850,-90.0250,10.0,1.2,258.0,2.0,'11111222,11111222,11111222' 
LOOP,urn:ioos:station:wmo:lopl1:1,2014-07-01T19:38:00Z,28.8850,-90.0250,10.0,1.9,284.0,2.7,'11111222,11111222,11111222' 
LOOP,urn:ioos:station:wmo:lopl1:1,2014-07-01T19:53:00Z,28.8850,-90.0250,10.0,1.7,256.0,2.4,'11111222,11111222,11111222' 
LOOP,urn:ioos:station:wmo:lopl1:1,2014-07-01T20:08:00Z,28.8850,-90.0250,10.0,1.8,302.0,2.5,'11111222,11111222,11111222' 
LOOP,urn:ioos:station:wmo:lopl1:1,2014-07-01T20:23:00Z,28.8850,-90.0250,10.0,0.7,260.0,2.2,'11111222,11111222,11111222' 
LOOP,urn:ioos:station:wmo:lopl1:1,2014-07-01T20:38:00Z,28.8850,-90.0250,10.0,1.0,351.0,2.5,'11111222,11111222,11111222' 
LOOP,urn:ioos:station:wmo:lopl1:1,2014-07-01T20:53:00Z,28.8850,-90.0250,10.0,1.7,261.0,3.3,'11111222,11111222,11111222' 
LOOP,urn:ioos:station:wmo:lopl1:1,2014-07-01T21:08:00Z,28.8850,-90.0250,10.0,2.1,237.0,3.0,'11111222,11111222,11111222' 
LOOP,urn:ioos:station:wmo:lopl1:1,2014-07-01T21:23:00Z,28.8850,-90.0250,10.0,2.2,247.0,3.2,'11111222,11111222,11111222' 
LOOP,urn:ioos:station:wmo:lopl1:1,2014-07-01T21:38:00Z,28.8850,-90.0250,10.0,1.7,238.0,2.7,'11111222,11111222,11111222' 
LOOP,urn:ioos:station:wmo:lopl1:1,2014-07-01T21:53:00Z,28.8850,-90.0250,10.0,2.4,254.0,3.6,'11111222,11111222,11111222' 
LOOP,urn:ioos:station:wmo:lopl1:1,2014-07-01T22:08:00Z,28.8850,-90.0250,10.0,1.9,246.0,3.4,'11111222,11111222,11111222' 
LOOP,urn:ioos:station:wmo:lopl1:1,2014-07-01T22:23:00Z,28.8850,-90.0250,10.0,1.9,228.0,2.9,'11111222,11111222,11111222' 
LOOP,urn:ioos:station:wmo:lopl1:1,2014-07-01T22:38:00Z,28.8850,-90.0250,10.0,1.9,214.0,2.7,'11111222,11111222,11111222' 
LOOP,urn:ioos:station:wmo:lopl1:1,2014-07-01T22:53:00Z,28.8850,-90.0250,10.0,2.6,222.0,3.5,'11111222,11111222,11111222' 
LOOP,urn:ioos:station:wmo:lopl1:1,2014-07-01T23:08:00Z,28.8850,-90.0250,10.0,2.6,226.0,3.0,'11111222,11111222,11111222' 
LOOP,urn:ioos:station:wmo:lopl1:1,2014-07-01T23:23:00Z,28.8850,-90.0250,10.0,3.1,228.0,3.8,'11111222,11111222,11111222' 
LOOP,urn:ioos:station:wmo:lopl1:1,2014-07-01T23:38:00Z,28.8850,-90.0250,10.0,2.8,216.0,3.6,'11111222,11111222,11111222' 
LOOP,urn:ioos:station:wmo:lopl1:1,2014-07-02T00:03:00Z,28.8850,-90.0250,10.0,2.7,237.0,3.6,'11111222,11111222,11111222' 
LOOP,urn:ioos:station:wmo:lopl1:1,2014-07-02T00:18:00Z,28.8850,-90.0250,10.0,3.4,239.0,4.7,'11111222,11111222,11111222' 
LOOP,urn:ioos:station:wmo:lopl1:1,2014-07-02T00:33:00Z,28.8850,-90.0250,10.0,4.1,241.0,5.5,'11111222,11111222,11111222' 
LOOP,urn:ioos:station:wmo:lopl1:1,2014-07-02T00:48:00Z,28.8850,-90.0250,10.0,3.5,252.0,5.0,'11111222,11111222,11111222' 
LOOP,urn:ioos:station:wmo:lopl1:1,2014-07-02T01:03:00Z,28.8850,-90.0250,10.0,4.1,262.0,5.6,'11111222,11111222,11111222' 
LOOP,urn:ioos:station:wmo:lopl1:1,2014-07-02T01:18:00Z,28.8850,-90.0250,10.0,4.5,264.0,5.5,'11111222,11111222,11111222' 
LOOP,urn:ioos:station:wmo:lopl1:1,2014-07-02T01:33:00Z,28.8850,-90.0250,10.0,5.2,269.0,6.3,'11111222,11111222,11111222' 
LOOP,urn:ioos:station:wmo:lopl1:1,2014-07-02T01:48:00Z,28.8850,-90.0250,10.0,3.6,257.0,5.0,'11111222,11111222,11111222' 
LOOP,urn:ioos:station:wmo:lopl1:1,2014-07-02T02:03:00Z,28.8850,-90.0250,10.0,4.0,268.0,6.2,'11111222,11111222,11111222' 
LOOP,urn:ioos:station:wmo:lopl1:1,2014-07-02T02:18:00Z,28.8850,-90.0250,10.0,4.2,264.0,6.9,'11111222,11111222,11111222' 
LOOP,urn:ioos:station:wmo:lopl1:1,2014-07-02T02:33:00Z,28.8850,-90.0250,10.0,3.8,249.0,5.5,'11111222,11111222,11111222' 
LOOP,urn:ioos:station:wmo:lopl1:1,2014-07-02T02:48:00Z,28.8850,-90.0250,10.0,5.0,269.0,7.4,'11111222,11111222,11111222' 
LOOP,urn:ioos:station:wmo:lopl1:1,2014-07-02T03:03:00Z,28.8850,-90.0250,10.0,5.0,267.0,6.7,'11111222,11111222,11111222' 
LOOP,urn:ioos:station:wmo:lopl1:1,2014-07-02T03:18:00Z,28.8850,-90.0250,10.0,5.6,271.0,7.3,'11111222,11111222,11111222' 
LOOP,urn:ioos:station:wmo:lopl1:1,2014-07-02T03:33:00Z,28.8850,-90.0250,10.0,5.2,266.0,8.1,'11111222,11111222,11111222' 
LOOP,urn:ioos:station:wmo:lopl1:1,2014-07-02T03:48:00Z,28.8850,-90.0250,10.0,6.1,267.0,7.3,'11111222,11111222,11111222' 
LOOP,urn:ioos:station:wmo:lopl1:1,2014-07-02T04:03:00Z,28.8850,-90.0250,10.0,6.7,270.0,8.2,'11111222,11111222,11111222' 
LOOP,urn:ioos:station:wmo:lopl1:1,2014-07-02T04:18:00Z,28.8850,-90.0250,10.0,5.5,264.0,7.3,'11111222,11111222,11111222' 
LOOP,urn:ioos:station:wmo:lopl1:1,2014-07-02T04:33:00Z,28.8850,-90.0250,10.0,6.5,269.0,8.8,'11111222,11111222,11111222' 
LOOP,urn:ioos:station:wmo:lopl1:1,2014-07-02T04:48:00Z,28.8850,-90.0250,10.0,6.4,265.0,8.5,'11111222,11111222,11111222' 
LOOP,urn:ioos:station:wmo:lopl1:1,2014-07-02T05:03:00Z,28.8850,-90.0250,10.0,5.2,262.0,7.2,'11111222,11111222,11111222' 
LOOP,urn:ioos:station:wmo:lopl1:1,2014-07-02T05:18:00Z,28.8850,-90.0250,10.0,6.5,272.0,7.6,'11111222,11111222,11111222' 
LOOP,urn:ioos:station:wmo:lopl1:1,2014-07-02T05:33:00Z,28.8850,-90.0250,10.0,7.7,284.0,9.0,'11111222,11111222,11111222' 
LOOP,urn:ioos:station:wmo:lopl1:1,2014-07-02T05:48:00Z,28.8850,-90.0250,10.0,7.8,286.0,9.3,'11111222,11111222,11111222' 
LOOP,urn:ioos:station:wmo:lopl1:1,2014-07-02T06:08:00Z,28.8850,-90.0250,10.0,8.5,286.0,10.0,'11111222,11111222,11111222' 
LOOP,urn:ioos:station:wmo:lopl1:1,2014-07-02T06:23:00Z,28.8850,-90.0250,10.0,7.0,278.0,8.7,'11111222,11111222,11111222' 
LOOP,urn:ioos:station:wmo:lopl1:1,2014-07-02T06:38:00Z,28.8850,-90.0250,10.0,7.1,278.0,8.3,'11111222,11111222,11111222' 
LOOP,urn:ioos:station:wmo:lopl1:1,2014-07-02T06:53:00Z,28.8850,-90.0250,10.0,8.1,287.0,9.2,'11111222,11111222,11111222' 
LOOP,urn:ioos:station:wmo:lopl1:1,2014-07-02T07:08:00Z,28.8850,-90.0250,10.0,6.9,289.0,8.0,'11111222,11111222,11111222' 
LOOP,urn:ioos:station:wmo:lopl1:1,2014-07-02T07:23:00Z,28.8850,-90.0250,10.0,6.8,289.0,8.0,'11111222,11111222,11111222' 
LOOP,urn:ioos:station:wmo:lopl1:1,2014-07-02T07:38:00Z,28.8850,-90.0250,10.0,7.2,278.0,8.5,'11111222,11111222,11111222' 
LOOP,urn:ioos:station:wmo:lopl1:1,2014-07-02T07:53:00Z,28.8850,-90.0250,10.0,6.1,282.0,6.9,'11111222,11111222,11111222' 
LOOP,urn:ioos:station:wmo:lopl1:1,2014-07-02T08:08:00Z,28.8850,-90.0250,10.0,6.3,270.0,7.2,'11111222,11111222,11111222' 
LOOP,urn:ioos:station:wmo:lopl1:1,2014-07-02T08:23:00Z,28.8850,-90.0250,10.0,5.4,284.0,6.5,'11111222,11111222,11111222' 
LOOP,urn:ioos:station:wmo:lopl1:1,2014-07-02T08:38:00Z,28.8850,-90.0250,10.0,5.0,298.0,6.2,'11111222,11111222,11111222' 
LOOP,urn:ioos:station:wmo:lopl1:1,2014-07-02T08:53:00Z,28.8850,-90.0250,10.0,4.8,292.0,6.1,'11111222,11111222,11111222' 
LOOP,urn:ioos:station:wmo:lopl1:1,2014-07-02T09:08:00Z,28.8850,-90.0250,10.0,5.4,303.0,6.8,'11111222,11111222,11111222' 
LOOP,urn:ioos:station:wmo:lopl1:1,2014-07-02T09:23:00Z,28.8850,-90.0250,10.0,4.6,323.0,6.2,'11111222,11111222,11111222' 
LOOP,urn:ioos:station:wmo:lopl1:1,2014-07-02T09:38:00Z,28.8850,-90.0250,10.0,4.9,316.0,6.3,'11111222,11111222,11111222' 
LOOP,urn:ioos:station:wmo:lopl1:1,2014-07-02T09:53:00Z,28.8850,-90.0250,10.0,4.4,324.0,6.6,'11111222,11111222,11111222' 
LOOP,urn:ioos:station:wmo:lopl1:1,2014-07-02T10:08:00Z,28.8850,-90.0250,10.0,4.4,328.0,6.8,'11111222,11111222,11111222' 
LOOP,urn:ioos:station:wmo:lopl1:1,2014-07-02T10:23:00Z,28.8850,-90.0250,10.0,5.8,332.0,6.9,'11111222,11111222,11111222' 
LOOP,urn:ioos:station:wmo:lopl1:1,2014-07-02T10:38:00Z,28.8850,-90.0250,10.0,5.7,331.0,7.2,'11111222,11111222,11111222' 
LOOP,urn:ioos:station:wmo:lopl1:1,2014-07-02T10:53:00Z,28.8850,-90.0250,10.0,6.9,332.0,8.5,'11111222,11111222,11111222' 
LOOP,urn:ioos:station:wmo:lopl1:1,2014-07-02T11:08:00Z,28.8850,-90.0250,10.0,6.8,336.0,8.2,'11111222,11111222,11111222' 
LOOP,urn:ioos:station:wmo:lopl1:1,2014-07-02T11:23:00Z,28.8850,-90.0250,10.0,6.0,340.0,7.3,'11111222,11111222,11111222' 
LOOP,urn:ioos:station:wmo:lopl1:1,2014-07-02T11:38:00Z,28.8850,-90.0250,10.0,6.7,337.0,9.0,'11111222,11111222,11111222' 
LOOP,urn:ioos:station:wmo:lopl1:1,2014-07-02T11:53:00Z,28.8850,-90.0250,10.0,7.1,336.0,8.2,'11111222,11111222,11111222' 
LOOP,urn:ioos:station:wmo:lopl1:1,2014-07-02T12:13:00Z,28.8850,-90.0250,10.0,6.9,350.0,9.8,'11111222,11111222,11111222' 
LOOP,urn:ioos:station:wmo:lopl1:1,2014-07-02T12:28:00Z,28.8850,-90.0250,10.0,7.5,341.0,8.5,'11111222,11111222,11111222' 
LOOP,urn:ioos:station:wmo:lopl1:1,2014-07-02T12:43:00Z,28.8850,-90.0250,10.0,7.1,340.0,8.6,'11111222,11111222,11111222' 
LOOP,urn:ioos:station:wmo:lopl1:1,2014-07-02T12:58:00Z,28.8850,-90.0250,10.0,6.7,346.0,8.1,'11111222,11111222,11111222' 
LOOP,urn:ioos:station:wmo:lopl1:1,2014-07-02T13:13:00Z,28.8850,-90.0250,10.0,5.9,339.0,7.4,'11111222,11111222,11111222' 
LOOP,urn:ioos:station:wmo:lopl1:1,2014-07-02T13:28:00Z,28.8850,-90.0250,10.0,5.6,341.0,7.1,'11111222,11111222,11111222' 
LOOP,urn:ioos:station:wmo:lopl1:1,2014-07-02T13:43:00Z,28.8850,-90.0250,10.0,6.2,342.0,8.8,'11111222,11111222,11111222' 
LOOP,urn:ioos:station:wmo:lopl1:1,2014-07-02T13:58:00Z,28.8850,-90.0250,10.0,8.2,345.0,10.8,'11111222,11111222,11111222' 
LOOP,urn:ioos:station:wmo:lopl1:1,2014-07-02T14:13:00Z,28.8850,-90.0250,10.0,6.5,344.0,8.7,'11111222,11111222,11111222' 
LOOP,urn:ioos:station:wmo:lopl1:1,2014-07-02T14:28:00Z,28.8850,-90.0250,10.0,7.7,356.0,9.8,'11111222,11111222,11111222' 
LOOP,urn:ioos:station:wmo:lopl1:1,2014-07-02T14:43:00Z,28.8850,-90.0250,10.0,7.3,351.0,8.6,'11111222,11111222,11111222' 
LOOP,urn:ioos:station:wmo:lopl1:1,2014-07-02T14:58:00Z,28.8850,-90.0250,10.0,6.3,353.0,7.5,'11111222,11111222,11111222' 
LOOP,urn:ioos:station:wmo:lopl1:1,2014-07-02T15:18:00Z,28.8850,-90.0250,10.0,5.9,351.0,7.1,'11111222,11111222,11111222' 
LOOP,urn:ioos:station:wmo:lopl1:1,2014-07-02T15:33:00Z,28.8850,-90.0250,10.0,5.7,357.0,7.6,'11111222,11111222,11111222' 
LOOP,urn:ioos:station:wmo:lopl1:1,2014-07-02T15:48:00Z,28.8850,-90.0250,10.0,5.3,348.0,6.8,'11111222,11111222,11111222' 
LOOP,urn:ioos:station:wmo:lopl1:1,2014-07-02T16:03:00Z,28.8850,-90.0250,10.0,5.3,357.0,6.6,'11111222,11111222,11111222' 
LOOP,urn:ioos:station:wmo:lopl1:1,2014-07-02T16:18:00Z,28.8850,-90.0250,10.0,4.9,348.0,6.2,'11111222,11111222,11111222' 
LOOP,urn:ioos:station:wmo:lopl1:1,2014-07-02T16:33:00Z,28.8850,-90.0250,10.0,4.2,3.0,5.5,'11111222,11111222,11111222' 
LOOP,urn:ioos:station:wmo:lopl1:1,2014-07-02T16:48:00Z,28.8850,-90.0250,10.0,3.7,348.0,4.6,'11111222,11111222,11111222' 
LOOP,urn:ioos:station:wmo:lopl1:1,2014-07-02T17:03:00Z,28.8850,-90.0250,10.0,3.8,359.0,4.7,'11111222,11111222,11111222' 
LOOP,urn:ioos:station:wmo:lopl1:1,2014-07-02T17:18:00Z,28.8850,-90.0250,10.0,3.1,358.0,4.0,'11111222,11111222,11111222' 
LOOP,urn:ioos:station:wmo:lopl1:1,2014-07-02T17:33:00Z,28.8850,-90.0250,10.0,2.9,10.0,3.7,'11111222,11111222,11111222' 
LOOP,urn:ioos:station:wmo:lopl1:1,2014-07-02T17:48:00Z,28.8850,-90.0250,10.0,2.3,356.0,2.9,'11111222,11111222,11111222' 
LOOP,urn:ioos:station:wmo:lopl1:1,2014-07-02T18:03:00Z,28.8850,-90.0250,10.0,2.2,346.0,3.1,'11111222,11111222,11111222' 
LOOP,urn:ioos:station:wmo:lopl1:1,2014-07-02T18:18:00Z,28.8850,-90.0250,10.0,1.2,336.0,1.6,'11111222,11111222,11111222' 
LOOP,urn:ioos:station:wmo:lopl1:1,2014-07-02T18:33:00Z,28.8850,-90.0250,10.0,1.4,315.0,3.0,'11111222,11111222,11111222' 
LOOP,urn:ioos:station:wmo:lopl1:1,2014-07-02T18:48:00Z,28.8850,-90.0250,10.0,2.4,307.0,3.8,'11111222,11111222,11111222' 
LOOP,urn:ioos:station:wmo:lopl1:1,2014-07-02T19:08:00Z,28.8850,-90.0250,10.0,1.5,317.0,3.0,'11111222,11111222,11111222' 
LOOP,urn:ioos:station:wmo:lopl1:1,2014-07-02T19:23:00Z,28.8850,-90.0250,10.0,1.4,331.0,3.0,'11111222,11111222,11111222' 
LOOP,urn:ioos:station:wmo:lopl1:1,2014-07-02T19:38:00Z,28.8850,-90.0250,10.0,1.3,290.0,2.3,'11111222,11111222,11111222' 
LOOP,urn:ioos:station:wmo:lopl1:1,2014-07-02T19:53:00Z,28.8850,-90.0250,10.0,2.5,285.0,3.1,'11111222,11111222,11111222' 
LOOP,urn:ioos:station:wmo:lopl1:1,2014-07-02T20:08:00Z,28.8850,-90.0250,10.0,2.2,273.0,3.1,'11111222,11111222,11111222' 
LOOP,urn:ioos:station:wmo:lopl1:1,2014-07-02T20:23:00Z,28.8850,-90.0250,10.0,1.2,265.0,2.3,'11111222,11111222,11111222' 
LOOP,urn:ioos:station:wmo:lopl1:1,2014-07-02T20:38:00Z,28.8850,-90.0250,10.0,1.3,283.0,2.2,'11111222,11111222,11111222' 
LOOP,urn:ioos:station:wmo:lopl1:1,2014-07-02T20:53:00Z,28.8850,-90.0250,10.0,2.6,280.0,3.2,'11111222,11111222,11111222' 
LOOP,urn:ioos:station:wmo:lopl1:1,2014-07-02T21:08:00Z,28.8850,-90.0250,10.0,2.3,272.0,2.8,'11111222,11111222,11111222' 
LOOP,urn:ioos:station:wmo:lopl1:1,2014-07-02T21:23:00Z,28.8850,-90.0250,10.0,1.5,247.0,2.3,'11111222,11111222,11111222' 
LOOP,urn:ioos:station:wmo:lopl1:1,2014-07-02T21:38:00Z,28.8850,-90.0250,10.0,1.5,234.0,2.3,'11111222,11111222,11111222' 
LOOP,urn:ioos:station:wmo:lopl1:1,2014-07-02T21:53:00Z,28.8850,-90.0250,10.0,2.5,253.0,3.5,'11111222,11111222,11111222' 
LOOP,urn:ioos:station:wmo:lopl1:1,2014-07-02T22:08:00Z,28.8850,-90.0250,10.0,2.9,255.0,4.3,'11111222,11111222,11111222' 
LOOP,urn:ioos:station:wmo:lopl1:1,2014-07-02T22:23:00Z,28.8850,-90.0250,10.0,2.6,249.0,3.8,'11111222,11111222,11111222' 
LOOP,urn:ioos:station:wmo:lopl1:1,2014-07-02T22:38:00Z,28.8850,-90.0250,10.0,3.6,252.0,4.3,'11111222,11111222,11111222' 
LOOP,urn:ioos:station:wmo:lopl1:1,2014-07-02T22:53:00Z,28.8850,-90.0250,10.0,3.8,270.0,4.7,'11111222,11111222,11111222' 
LOOP,urn:ioos:station:wmo:lopl1:1,2014-07-02T23:08:00Z,28.8850,-90.0250,10.0,4.5,272.0,5.4,'11111222,11111222,11111222' 
LOOP,urn:ioos:station:wmo:lopl1:1,2014-07-02T23:23:00Z,28.8850,-90.0250,10.0,4.5,272.0,5.6,'11111222,11111222,11111222' 
LOOP,urn:ioos:station:wmo:lopl1:1,2014-07-02T23:38:00Z,28.8850,-90.0250,10.0,4.7,277.0,5.6,'11111222,11111222,11111222' 
LOOP,urn:ioos:station:wmo:lopl1:1,2014-07-02T23:53:00Z,28.8850,-90.0250,10.0,5.2,273.0,6.0,'11111222,11111222,11111222' 
LOOP,urn:ioos:station:wmo:lopl1:1,2014-07-03T00:08:00Z,28.8850,-90.0250,10.0,5.9,281.0,6.7,'11111222,11111222,11111222' 
LOOP,urn:ioos:station:wmo:lopl1:1,2014-07-03T00:23:00Z,28.8850,-90.0250,10.0,7.5,283.0,8.3,'11111222,11111222,11111222' 
LOOP,urn:ioos:station:wmo:lopl1:1,2014-07-03T00:38:00Z,28.8850,-90.0250,10.0,6.5,292.0,7.6,'11111222,11111222,11111222' 
LOOP,urn:ioos:station:wmo:lopl1:1,2014-07-03T00:53:00Z,28.8850,-90.0250,10.0,5.8,295.0,7.4,'11111222,11111222,11111222' 
LOOP,urn:ioos:station:wmo:lopl1:1,2014-07-03T01:08:00Z,28.8850,-90.0250,10.0,7.1,287.0,8.7,'11111222,11111222,11111222' 
LOOP,urn:ioos:station:wmo:lopl1:1,2014-07-03T01:23:00Z,28.8850,-90.0250,10.0,6.3,295.0,7.8,'11111222,11111222,11111222' 
LOOP,urn:ioos:station:wmo:lopl1:1,2014-07-03T01:43:00Z,28.8850,-90.0250,10.0,7.5,288.0,8.6,'11111222,11111222,11111222' 
LOOP,urn:ioos:station:wmo:lopl1:1,2014-07-03T01:58:00Z,28.8850,-90.0250,10.0,7.4,284.0,8.4,'11111222,11111222,11111222' 
LOOP,urn:ioos:station:wmo:lopl1:1,2014-07-03T02:13:00Z,28.8850,-90.0250,10.0,7.8,307.0,9.4,'11111222,11111222,11111222' 
LOOP,urn:ioos:station:wmo:lopl1:1,2014-07-03T02:28:00Z,28.8850,-90.0250,10.0,8.0,310.0,9.2,'11111222,11111222,11111222' 